Regional Weather Roundup
Issued by NWS Sterling, VA

Home | Current Version | Previous Version | Text Only | Print | Product List | Glossary Off
Versions: 1 2 3 4 5 6 7 8 9 10 11 12 13 14 15 16 17 18 19 20 21 22 23 24 25 26 27 28 29 30 31 32 33 34 35 36 37 38 39 40 41 42 43 44 45 46 47 48 49 50

000
ASUS41 KLWX 110910
RWRLWX

REGIONAL WEATHER ROUNDUP
NATIONAL WEATHER SERVICE BALTIMORE MD/WASHINGTON DC
400 AM EST THU FEB 11 2016

Note: "FAIR" indicates few or no clouds below 12,000 feet
with no significant weather and/or obstructions to visibility.
 TC=TEMPERATURE CELSIUS

 * =Non NWS site. Station does not report precipitation (e.g. rain,
    snow, etc.), thunder, or fog.

DCZ001-MDZ009-015-VAZ040>042-051-053>054-111000-
WASHINGTON METRO

CITY           SKY/WX    TMP DP  RH WIND       PRES   REMARKS
WASHINGTON NAT FAIR      24   5  44 NW14      30.00S WCI  12
DULLES         MOCLDY    21   8  57 W12       29.99R WCI   9
ANDREWS AFB    PTCLDY    22   4  44 W18       29.96S WCI   8
FT BELVOIR     FAIR      23   6  48 NW14      30.00R WCI  10
QUANTICO       FAIR      25   4  40 NW10      30.03R WCI  15
COLLEGE PARK*  FAIR      25   5  42 W13       29.98S WCI  13
LEESBURG*      FAIR      23  10  58 NW16G23   29.99S WCI  10
MANASSAS*      FAIR      21   7  53 NW8       30.01R WCI  12
GAITHERSBURG*  CLEAR     19   3  49 W12G21    29.99S WCI   7

$$

MDZ006>007-011-014-111000-
BALTIMORE METRO

CITY           SKY/WX    TMP DP  RH WIND       PRES   REMARKS
BWI AIRPORT    MOCLDY    22   6  50 W15       29.95S WCI   9
MD SCIENCE CTR   N/A     23   5  46 MISG      29.90F
MARTIN STATE   CLEAR     25  10  54 W18G25    29.97R WCI  11
ANNAPOLIS      CLEAR     24   9  52 W14G21    29.96S WCI  12
FORT MEADE*    PTCLDY    23   9  54 W14G22    29.99S WCI  11

$$

MDZ012-015-019>023-111000-
MARYLAND EASTERN SHORE

CITY           SKY/WX    TMP DP  RH WIND       PRES   REMARKS
OCEAN CITY     CLEAR     25  10  53 NW8G20    29.95R WCI  16
SALISBURY      CLEAR     25   9  50 W13G22    29.95R WCI  14
BAY BRIDGE AP*   N/A     25   9  50 W16G23    29.97R WCI  12
CAMBRIDGE*     CLEAR     25   5  42 W17G28    29.97R WCI  11
EASTON*        CLEAR     25   9  51 NW17G28   29.99S WCI  11

$$

MDZ017>025-111000-
SOUTHERN MARYLAND

CITY           SKY/WX    TMP DP  RH WIND       PRES   REMARKS
PATUXENT RIVER CLEAR     23   6  48 W10       29.98S WCI  12
ST INIGOES     CLEAR     25   9  50 W14G20    29.99R WCI  13
LEONARDTOWN*   CLEAR     23   7  50 W9        30.00R WCI  13

$$

MDZ003>005-111000-
NORTH CENTRAL MARYLAND

CITY           SKY/WX    TMP DP  RH WIND       PRES   REMARKS
FREDERICK*     CLEAR     21   9  58 W17G23    30.01R WCI   7
HAGERSTOWN APT CLOUDY    18   4  54 W12       29.94R WCI   5
WESTMINSTER*   CLEAR     18  10  73 W8        29.90S WCI   7

$$

MDZ501>502-111000-
WESTERN MARYLAND

CITY           SKY/WX    TMP DP  RH WIND       PRES   REMARKS
OAKLAND*       CLOUDY     3   1  92 W16G22    29.78S FOG     WCI -16
CUMBERLAND*    PTCLDY    19   5  53 W10G16    30.02R WCI   8

$$

VAZ025>031-111000-
SHENANDOAH VALLEY

CITY           SKY/WX    TMP DP  RH WIND       PRES   REMARKS
WINCHESTER*    FAIR      21   5  49 W10       29.97R WCI  10
FRONT ROYAL*   FAIR      19   1  45 SW5G17    29.97S
LURAY*         FAIR      18   0  45 W6        29.98S
NEW MARKET*    PTSUNNY   17   1  48 SW7       29.98S
STAUNTON*      FAIR      20   3  48 W10       29.99S WCI   8
WAYNESBORO*    FAIR      14  -3  46 W7        29.96R

$$

WVZ021-048>050-054>055-111000-
EASTERN WEST VIRGINIA PANHANDLE

CITY           SKY/WX    TMP DP  RH WIND       PRES   REMARKS
MARTINSBURG    CLOUDY    18   3  52 W9        29.97R WCI   7
PETERSBURG*    CLOUDY    17   2  51 CALM      30.01R

$$

VAZ036>039-050-111000-
CENTRAL FOOTHILLS

CITY           SKY/WX    TMP DP  RH WIND       PRES   REMARKS
CHARLOTTESVILL FAIR      20  -1  40 W5        29.99S
CULPEPER*      FAIR      21   4  48 NW9       30.01S WCI  11
ORANGE*        FAIR      23   5  46 CALM      30.01F
GORDONSVILLE*  FAIR      21   3  46 W3        30.00S
WARRENTON*     FAIR      22  10  58 CALM      30.00R

$$

VAZ055>057-111000-
NORTH AND CENTRAL PIEDMONT

CITY           SKY/WX    TMP DP  RH WIND       PRES   REMARKS
FREDERICKSBRG* FAIR      23   6  47 W5        30.01S
STAFFORD*      FAIR      22   3  44 W6        30.05R

$$

NCZ024-NYZ072-PAZ021-071-VAZ022-071-111000-
OTHER REGIONAL OBSERVATIONS

CITY           SKY/WX    TMP DP  RH WIND       PRES   REMARKS
NEW YORK CITY  CLOUDY    26   4  38 W12G23    29.80R WCI  16
PHILADELPHIA   MOCLDY    24  10  55 W16G25    29.89S WCI  11
PITTSBURGH     FLURRIES  11   6  81 W8        29.95R WCI  -1
ROANOKE        FAIR      18   3  52 W16G28    30.03F WCI   3
RICHMOND       FAIR      23   4  44 W12       30.03R WCI  12
RALEIGH        CLEAR     23   5  46 NW3       30.11R

$$

ANZ530>537-111000-
MARINE OBSERVATIONS

STATION/POSITION TIME  TEMP    WIND        PRES
                       AIR SEA DIR/SP/G
                 (UTC) (F)     (DEG/KT/KT) (MB)
THOMAS PT LIGHT  0900   24 38  300/ 23/ 27 1015.0
BALT KEY BRIDGE  0800   25     270/ 20/ 25 1013.9S
COVE POINT       0800   24     330/ 14/ 23 1015.8R
LEWISETTA        0800   26 40  300/ 11/ 14 1015.5R
SOLOMONS ISLAND  0800   26 40  300/ 11/ 16   N/A
PINEY POINT      0800          330/ 20/ 25   N/A

$$




USA.gov is the U.S. government's official web portal to all federal, state and local government web resources and services.